This is the latest recevied weather packets stored in our database for station/object W5DNT. If no packets are shown the sender has not sent any weather packets the latest 10 day(s).
| Time | Temp. | Humidity | Pressure | Rain* | Wind** | Luminosity | Snow |
|---|---|---|---|---|---|---|---|
| 1777112142 | 19.44° C | 75% | 1005 hPa | 0 mm | - | - | - |
| 1777111241 | 20° C | 75% | 1004.6 hPa | 0 mm | - | - | - |
| 1777110354 | 20° C | 75% | 1004.5 hPa | 0 mm | - | - | - |
| 1777109439 | 20.56° C | 74% | 1004.5 hPa | 0 mm | - | - | - |
| 1777108541 | 20.56° C | 75% | 1004.2 hPa | 0 mm | - | - | - |
| 1777107649 | 20° C | 74% | 1004 hPa | 0 mm | - | - | - |
| 1777106739 | 20.56° C | 75% | 1004 hPa | 0 mm | - | - | - |
| 1777105837 | 20.56° C | 75% | 1004 hPa | 0 mm | - | - | - |
| 1777104948 | 20.56° C | 74% | 1004 hPa | 0 mm | - | - | - |
| 1777104041 | 20.56° C | 74% | 1004 hPa | 0 mm | - | - | - |
| 1777103134 | 20° C | 74% | 1004 hPa | 0 mm | - | - | - |
| 1777102230 | 20° C | 74% | 1004.1 hPa | 0 mm | - | - | - |
| 1777101335 | 19.44° C | 73% | 1004.3 hPa | 0 mm | - | - | - |
| 1777100426 | 19.44° C | 74% | 1004.1 hPa | 0 mm | - | - | - |
| 1777099539 | 18.89° C | 76% | 1004.2 hPa | 0 mm | - | - | - |
| 1777098630 | 18.33° C | 71% | 1004.1 hPa | 0 mm | - | - | - |
| 1777097727 | 18.33° C | 70% | 1004.2 hPa | 0 mm | - | - | - |
| 1777096822 | 18.33° C | 70% | 1004.2 hPa | 0 mm | - | - | - |
| 1777095930 | 18.33° C | 70% | 1004.1 hPa | 0 mm | - | - | - |
| 1777095044 | 18.89° C | 70% | 1004.3 hPa | 0 mm | - | - | - |
| 1777094116 | 18.33° C | 70% | 1004.4 hPa | 0 mm | - | - | - |
| 1777093223 | 18.89° C | 70% | 1004.5 hPa | 0 mm | - | - | - |
| 1777092314 | 19.44° C | 68% | 1004.5 hPa | 0 mm | - | - | - |
| 1777091408 | 19.44° C | 68% | 1004.7 hPa | 0 mm | - | - | - |
| 1777090508 | 20° C | 66% | 1004.7 hPa | 0 mm | - | - | - |
* Rain latest hour (hover to see other rain measurements)
** Current wind speed in m/s (hover to see current wind gust speed)